CZ-6A DEB, 56583

Orbit data source: Space-Track

CZ-6A DEB, 56583 is space debris in SSO originally from a launch on Fri, 11 Nov 2022 UTC launched from the Taiyaun Space Center, China (TSC). Debris objects in space refer to the collection of defunct objects orbiting the Earth. Examples of debris include non-operational satellites, rocket bodies, and fragments generated from explosions, collisions, or faulty payload assembly.

Loading next visibility...
Identifier
56583, 2022-151ADF
Orbit
SSO
Country
Flag of CNCN / PRC
Related business
Manufacturer
SAST
Mission
Spacecraft
Bus & Motor
Unknown
Mass
Unknown
Launch date (UTC)
2022-11-11 (3 years ago)
Launch vehicle
Unknown
Launch site
Taiyaun Space Center, China (TSC)
Object type
Payload
Rocket body
Debris
Shape & HBR
Unknown shape, 0.1 m
Radar Cross Section
Small (<0.1 m²)

Expand to show TLE details & history
Last TLE update: 12 hours ago

TLE from 12 hours ago
0 CZ-6A DEB
1 56583U 22151ADF 25349.92273067  .00019230  00000-0  23684-2 0  9997
2 56583  98.6393  53.8064 0063863  92.0934 268.7591 14.81527670146107
Epoch: 2025-12-15T22:08Z
TLE epoch observation values (Epoch: 2025-12-15T22:08:43.929Z)
Latitude
-0.00009°
Longitude
-3.19096°
Altitude
628.761 km
Speed
7.543 km/s
True Right ascension
03h 35m 13s
True Declination
0° 00' 00"
Sunlit
Object was in full shadow at epoch
Visualization orbit readout
Latitude
Unknown
Longitude
Unknown
Altitude
Unknown
Speed
Unknown
Apparent Right ascension
Unknown
Apparent Declination
Unknown
Sunlit
N/A
Visualization observer readout
Local Sidereal Time
08:25:54
Azimuth
Unknown
Elevation
Unknown
Doppler factor
Unknown
Orbital elements
Apogee altitude
666.282 km
Perigee altitude
576.877 km
Semi-major axis
6,999.716 km
Eccentricity
0.00639
Inclination
98.6393°
RAAN
53.8064°
Arg. of periapsis
92.0934°
True anomaly
268.0276°
Mean anomaly
268.7591°
Eccentric anomaly
268.39334°
Mean motion
3.70615 °/min
Orbital period
97.14 mins
BSTAR
0.0023684
Loading maneuver chart data...
Computing Atmospheric mass density...
Loading historical data...
Loading historical data...
Loading historical data...
Loading historical data...
Loading historical data...
Loading historical data...
Loading historical data...

Documentation

Showing up to 5 results
|